Year,Month,Day,Hour,Minute,Value (Times are PST for temperature in C)
2016,05,31,00,00,13.10
2016,05,31,00,01,13.10
2016,05,31,00,02,13.10
2016,05,31,00,03,13.10
2016,05,31,00,04,13.10
2016,05,31,00,05,13.10
2016,05,31,00,06,13.10
2016,05,31,00,07,13.10
2016,05,31,00,08,13.10
2016,05,31,00,09,13.00
2016,05,31,00,10,13.00
2016,05,31,00,11,13.00
2016,05,31,00,12,13.00
2016,05,31,00,13,13.00
2016,05,31,00,14,13.00
2016,05,31,00,15,12.90
2016,05,31,00,16,12.90
2016,05,31,00,17,12.90
2016,05,31,00,18,12.90
2016,05,31,00,19,12.90
2016,05,31,00,20,12.90
2016,05,31,00,21,12.90
2016,05,31,00,22,12.90
2016,05,31,00,23,12.90
2016,05,31,00,24,12.90
2016,05,31,00,25,12.90
2016,05,31,00,26,12.90
2016,05,31,00,27,12.90
2016,05,31,00,28,12.80
2016,05,31,00,29,12.80
2016,05,31,00,30,12.80
2016,05,31,00,31,12.80
2016,05,31,00,32,12.80
2016,05,31,00,33,12.80
2016,05,31,00,34,12.80
2016,05,31,00,35,12.80
2016,05,31,00,36,12.70
2016,05,31,00,37,12.70
2016,05,31,00,38,12.70
2016,05,31,00,39,12.70
2016,05,31,00,40,12.60
2016,05,31,00,41,12.60
2016,05,31,00,42,12.60
2016,05,31,00,43,12.50
2016,05,31,00,44,12.50
2016,05,31,00,45,12.40
2016,05,31,00,46,12.40
2016,05,31,00,47,12.40
2016,05,31,00,48,12.30
2016,05,31,00,49,12.30
2016,05,31,00,50,12.30
2016,05,31,00,51,12.30
2016,05,31,00,52,12.30
2016,05,31,00,53,12.20
2016,05,31,00,54,12.20
2016,05,31,00,55,12.20
2016,05,31,00,56,12.20
2016,05,31,00,57,12.20
2016,05,31,00,58,12.20
2016,05,31,00,59,12.20
2016,05,31,01,00,12.10
2016,05,31,01,01,12.10
2016,05,31,01,02,12.10
2016,05,31,01,03,12.10
2016,05,31,01,04,12.10
2016,05,31,01,05,12.10
2016,05,31,01,06,12.10
2016,05,31,01,07,12.10
2016,05,31,01,08,12.10
2016,05,31,01,09,12.10
2016,05,31,01,10,12.10
2016,05,31,01,11,12.10
2016,05,31,01,12,12.00
2016,05,31,01,13,12.00
2016,05,31,01,14,12.00
2016,05,31,01,15,12.00
2016,05,31,01,16,12.00
2016,05,31,01,17,12.00
2016,05,31,01,18,12.00
2016,05,31,01,19,11.90
2016,05,31,01,20,11.90
2016,05,31,01,21,11.90
2016,05,31,01,22,11.90
2016,05,31,01,23,11.90
2016,05,31,01,24,11.90
2016,05,31,01,25,11.90
2016,05,31,01,26,11.90
2016,05,31,01,27,11.80
2016,05,31,01,28,11.80
2016,05,31,01,29,11.80
2016,05,31,01,30,11.80
2016,05,31,01,31,11.80
2016,05,31,01,32,11.80
2016,05,31,01,33,11.70
2016,05,31,01,34,11.70
2016,05,31,01,35,11.70
2016,05,31,01,36,11.70
2016,05,31,01,37,11.60
2016,05,31,01,38,11.60
2016,05,31,01,39,11.60
2016,05,31,01,40,11.60
2016,05,31,01,41,11.60
2016,05,31,01,42,11.50
2016,05,31,01,43,11.50
2016,05,31,01,44,11.50
2016,05,31,01,45,11.50
2016,05,31,01,46,11.50
2016,05,31,01,47,11.50
2016,05,31,01,48,11.40
2016,05,31,01,49,11.40
2016,05,31,01,50,11.40
2016,05,31,01,51,11.40
2016,05,31,01,52,11.40
2016,05,31,01,53,11.40
2016,05,31,01,54,11.40
2016,05,31,01,55,11.40
2016,05,31,01,56,11.40
2016,05,31,01,57,11.40
2016,05,31,01,58,11.40
2016,05,31,01,59,11.40
2016,05,31,02,00,11.30
2016,05,31,02,01,11.30
2016,05,31,02,02,11.30
2016,05,31,02,03,11.30
2016,05,31,02,04,11.30
2016,05,31,02,05,11.30
2016,05,31,02,06,11.30
2016,05,31,02,07,11.30
2016,05,31,02,08,11.30
2016,05,31,02,09,11.20
2016,05,31,02,10,11.20
2016,05,31,02,11,11.20
2016,05,31,02,12,11.20
2016,05,31,02,13,11.20
2016,05,31,02,14,11.10
2016,05,31,02,15,11.10
2016,05,31,02,16,11.10
2016,05,31,02,17,11.10
2016,05,31,02,18,11.10
2016,05,31,02,19,11.10
2016,05,31,02,20,11.10
2016,05,31,02,21,11.10
2016,05,31,02,22,11.10
2016,05,31,02,23,11.10
2016,05,31,02,24,11.10
2016,05,31,02,25,11.10
2016,05,31,02,26,11.00
2016,05,31,02,27,11.00
2016,05,31,02,28,11.00
2016,05,31,02,29,11.00
2016,05,31,02,30,11.00
2016,05,31,02,31,11.00
2016,05,31,02,32,11.00
2016,05,31,02,33,11.00
2016,05,31,02,34,11.00
2016,05,31,02,35,11.00
2016,05,31,02,36,11.00
2016,05,31,02,37,11.00
2016,05,31,02,38,10.90
2016,05,31,02,39,10.90
2016,05,31,02,40,10.90
2016,05,31,02,41,10.90
2016,05,31,02,42,10.90
2016,05,31,02,43,10.90
2016,05,31,02,44,10.90
2016,05,31,02,45,10.90
2016,05,31,02,46,10.90
2016,05,31,02,47,10.90
2016,05,31,02,48,10.90
2016,05,31,02,49,10.90
2016,05,31,02,50,10.90
2016,05,31,02,51,10.90
2016,05,31,02,52,10.90
2016,05,31,02,53,10.90
2016,05,31,02,54,10.90
2016,05,31,02,55,10.90
2016,05,31,02,56,10.90
2016,05,31,02,57,10.80
2016,05,31,02,58,10.90
2016,05,31,02,59,10.90
2016,05,31,03,00,10.90
2016,05,31,03,01,10.90
2016,05,31,03,02,10.90
2016,05,31,03,03,10.90
2016,05,31,03,04,10.90
2016,05,31,03,05,10.90
2016,05,31,03,06,10.90
2016,05,31,03,07,10.90
2016,05,31,03,08,10.80
2016,05,31,03,09,10.80
2016,05,31,03,10,10.80
2016,05,31,03,11,10.80
2016,05,31,03,12,10.80
2016,05,31,03,13,10.80
2016,05,31,03,14,10.80
2016,05,31,03,15,10.80
2016,05,31,03,16,10.80
2016,05,31,03,17,10.80
2016,05,31,03,18,10.70
2016,05,31,03,19,10.70
2016,05,31,03,20,10.70
2016,05,31,03,21,10.70
2016,05,31,03,22,10.70
2016,05,31,03,23,10.70
2016,05,31,03,24,10.70
2016,05,31,03,25,10.70
2016,05,31,03,26,10.70
2016,05,31,03,27,10.70
2016,05,31,03,28,10.70
2016,05,31,03,29,10.70
2016,05,31,03,30,10.70
2016,05,31,03,31,10.70
2016,05,31,03,32,10.70
2016,05,31,03,33,10.70
2016,05,31,03,34,10.70
2016,05,31,03,35,10.70
2016,05,31,03,36,10.70
2016,05,31,03,37,10.70
2016,05,31,03,38,10.60
2016,05,31,03,39,10.60
2016,05,31,03,40,10.60
2016,05,31,03,41,10.60
2016,05,31,03,42,10.60
2016,05,31,03,43,10.60
2016,05,31,03,44,10.60
2016,05,31,03,45,10.60
2016,05,31,03,46,10.60
2016,05,31,03,47,10.60
2016,05,31,03,48,10.60
2016,05,31,03,49,10.60
2016,05,31,03,50,10.70
2016,05,31,03,51,10.60
2016,05,31,03,52,10.70
2016,05,31,03,53,10.60
2016,05,31,03,54,10.60
2016,05,31,03,55,10.70
2016,05,31,03,56,10.60
2016,05,31,03,57,10.70
2016,05,31,03,58,10.70
2016,05,31,03,59,10.70
2016,05,31,04,00,10.70
2016,05,31,04,01,10.70
2016,05,31,04,02,10.70
2016,05,31,04,03,10.70
2016,05,31,04,04,10.70
2016,05,31,04,05,10.70
2016,05,31,04,06,10.70
2016,05,31,04,07,10.70
2016,05,31,04,08,10.70
2016,05,31,04,09,10.70
2016,05,31,04,10,10.70
2016,05,31,04,11,10.70
2016,05,31,04,12,10.70
2016,05,31,04,13,10.70
2016,05,31,04,14,10.80
2016,05,31,04,15,10.80
2016,05,31,04,16,10.80
2016,05,31,04,17,10.80
2016,05,31,04,18,10.80
2016,05,31,04,19,10.80
2016,05,31,04,20,10.80
2016,05,31,04,21,10.80
2016,05,31,04,22,10.80
2016,05,31,04,23,10.80
2016,05,31,04,24,10.80
2016,05,31,04,25,10.80
2016,05,31,04,26,10.70
2016,05,31,04,27,10.70
2016,05,31,04,28,10.70
2016,05,31,04,29,10.70
2016,05,31,04,30,10.70
2016,05,31,04,31,10.70
2016,05,31,04,32,10.70
2016,05,31,04,33,10.70
2016,05,31,04,34,10.70
2016,05,31,04,35,10.70
2016,05,31,04,36,10.70
2016,05,31,04,37,10.70
2016,05,31,04,38,10.70
2016,05,31,04,39,10.70
2016,05,31,04,40,10.70
2016,05,31,04,41,10.70
2016,05,31,04,42,10.70
2016,05,31,04,43,10.70
2016,05,31,04,44,10.70
2016,05,31,04,45,10.70
2016,05,31,04,46,10.70
2016,05,31,04,47,10.70
2016,05,31,04,48,10.70
2016,05,31,04,49,10.60
2016,05,31,04,50,10.60
2016,05,31,04,51,10.60
2016,05,31,04,52,10.60
2016,05,31,04,53,10.60
2016,05,31,04,54,10.60
2016,05,31,04,55,10.60
2016,05,31,04,56,10.60
2016,05,31,04,57,10.60
2016,05,31,04,58,10.60
2016,05,31,04,59,10.60
2016,05,31,05,00,10.50
2016,05,31,05,01,10.50
2016,05,31,05,02,10.50
2016,05,31,05,03,10.50
2016,05,31,05,04,10.40
2016,05,31,05,05,10.40
2016,05,31,05,06,10.40
2016,05,31,05,07,10.40
2016,05,31,05,08,10.40
2016,05,31,05,09,10.40
2016,05,31,05,10,10.40
2016,05,31,05,11,10.40
2016,05,31,05,12,10.40
2016,05,31,05,13,10.40
2016,05,31,05,14,10.40
2016,05,31,05,15,10.40
2016,05,31,05,16,10.30
2016,05,31,05,17,10.30
2016,05,31,05,18,10.30
2016,05,31,05,19,10.30
2016,05,31,05,20,10.30
2016,05,31,05,21,10.30
2016,05,31,05,22,10.30
2016,05,31,05,23,10.30
2016,05,31,05,24,10.30
2016,05,31,05,25,10.30
2016,05,31,05,26,10.30
2016,05,31,05,27,10.30
2016,05,31,05,28,10.30
2016,05,31,05,29,10.30
2016,05,31,05,30,10.20
2016,05,31,05,31,10.20
2016,05,31,05,32,10.20
2016,05,31,05,33,10.20
2016,05,31,05,34,10.20
2016,05,31,05,35,10.20
2016,05,31,05,36,10.20
2016,05,31,05,37,10.20
2016,05,31,05,38,10.20
2016,05,31,05,39,10.20
2016,05,31,05,40,10.20
2016,05,31,05,41,10.20
2016,05,31,05,42,10.20
2016,05,31,05,43,10.20
2016,05,31,05,44,10.20
2016,05,31,05,45,10.20
2016,05,31,05,46,10.20
2016,05,31,05,47,10.20
2016,05,31,05,48,10.20
2016,05,31,05,49,10.20
2016,05,31,05,50,10.20
2016,05,31,05,51,10.20
2016,05,31,05,52,10.20
2016,05,31,05,53,10.20
2016,05,31,05,54,10.10
2016,05,31,05,55,10.10
2016,05,31,05,56,10.10
2016,05,31,05,57,10.10
2016,05,31,05,58,10.10
2016,05,31,05,59,10.10
2016,05,31,06,00,10.10
2016,05,31,06,01,10.10
2016,05,31,06,02,10.10
2016,05,31,06,03,10.10
2016,05,31,06,04,10.20
2016,05,31,06,05,10.20
2016,05,31,06,06,10.20
2016,05,31,06,07,10.20
2016,05,31,06,08,10.20
2016,05,31,06,09,10.20
2016,05,31,06,10,10.20
2016,05,31,06,11,10.20
2016,05,31,06,12,10.20
2016,05,31,06,13,10.20
2016,05,31,06,14,10.30
2016,05,31,06,15,10.30
2016,05,31,06,16,10.30
2016,05,31,06,17,10.30
2016,05,31,06,18,10.30
2016,05,31,06,19,10.30
2016,05,31,06,20,10.40
2016,05,31,06,21,10.40
2016,05,31,06,22,10.40
2016,05,31,06,23,10.40
2016,05,31,06,24,10.40
2016,05,31,06,25,10.40
2016,05,31,06,26,10.40
2016,05,31,06,27,10.50
2016,05,31,06,28,10.50
2016,05,31,06,29,10.50
2016,05,31,06,30,10.50
2016,05,31,06,31,10.60
2016,05,31,06,32,10.60
2016,05,31,06,33,10.60
2016,05,31,06,34,10.60
2016,05,31,06,35,10.60
2016,05,31,06,36,10.60
2016,05,31,06,37,10.60
2016,05,31,06,38,10.60
2016,05,31,06,39,10.70
2016,05,31,06,40,10.70
2016,05,31,06,41,10.60
2016,05,31,06,42,10.60
2016,05,31,06,43,10.60
2016,05,31,06,44,10.60
2016,05,31,06,45,10.60
2016,05,31,06,46,10.60
2016,05,31,06,47,10.60
2016,05,31,06,48,10.60
2016,05,31,06,49,10.70
2016,05,31,06,50,10.70
2016,05,31,06,51,10.70
2016,05,31,06,52,10.70
2016,05,31,06,53,10.70
2016,05,31,06,54,10.70
2016,05,31,06,55,10.70
2016,05,31,06,56,10.80
2016,05,31,06,57,10.80
2016,05,31,06,58,10.80
2016,05,31,06,59,10.80
2016,05,31,07,00,10.80
2016,05,31,07,01,10.80
2016,05,31,07,02,10.80
2016,05,31,07,03,10.80
2016,05,31,07,04,10.90
2016,05,31,07,05,10.90
2016,05,31,07,06,10.90
2016,05,31,07,07,10.90
2016,05,31,07,08,10.90
2016,05,31,07,09,11.00
2016,05,31,07,10,11.00
2016,05,31,07,11,11.10
2016,05,31,07,12,11.10
2016,05,31,07,13,11.10
2016,05,31,07,14,11.10
2016,05,31,07,15,11.10
2016,05,31,07,16,11.20
2016,05,31,07,17,11.20
2016,05,31,07,18,11.20
2016,05,31,07,19,11.20
2016,05,31,07,20,11.20
2016,05,31,07,21,11.20
2016,05,31,07,22,11.30
2016,05,31,07,23,11.30
2016,05,31,07,24,11.30
2016,05,31,07,25,11.30
2016,05,31,07,26,11.40
2016,05,31,07,27,11.40
2016,05,31,07,28,11.40
2016,05,31,07,29,11.40
2016,05,31,07,30,11.50
2016,05,31,07,31,11.50
2016,05,31,07,32,11.50
2016,05,31,07,33,11.60
2016,05,31,07,34,11.60
2016,05,31,07,35,11.60
2016,05,31,07,36,11.60
2016,05,31,07,37,11.70
2016,05,31,07,38,11.70
2016,05,31,07,39,11.70
2016,05,31,07,40,11.70
2016,05,31,07,41,11.80
2016,05,31,07,42,11.80
2016,05,31,07,43,11.90
2016,05,31,07,44,11.90
2016,05,31,07,45,11.90
2016,05,31,07,46,12.00
2016,05,31,07,47,12.00
2016,05,31,07,48,12.10
2016,05,31,07,49,12.00
2016,05,31,07,50,12.10
2016,05,31,07,51,12.10
2016,05,31,07,52,12.20
2016,05,31,07,53,12.20
2016,05,31,07,54,12.20
2016,05,31,07,55,12.30
2016,05,31,07,56,12.30
2016,05,31,07,57,12.40
2016,05,31,07,58,12.50
2016,05,31,07,59,12.60
2016,05,31,08,00,12.70
2016,05,31,08,01,12.70
2016,05,31,08,02,12.80
2016,05,31,08,03,12.90
2016,05,31,08,04,13.00
2016,05,31,08,05,13.10
2016,05,31,08,06,13.20
2016,05,31,08,07,13.20
2016,05,31,08,08,13.30
2016,05,31,08,09,13.40
2016,05,31,08,10,13.50
2016,05,31,08,11,13.60
2016,05,31,08,12,13.60
2016,05,31,08,13,13.70
2016,05,31,08,14,13.80
2016,05,31,08,15,13.90
2016,05,31,08,16,13.90
2016,05,31,08,17,14.00
2016,05,31,08,18,14.10
2016,05,31,08,19,14.20
2016,05,31,08,20,14.20
2016,05,31,08,21,14.30
2016,05,31,08,22,14.30
2016,05,31,08,23,14.40
2016,05,31,08,24,14.40
2016,05,31,08,25,14.50
2016,05,31,08,26,14.60
2016,05,31,08,27,14.60
2016,05,31,08,28,14.70
2016,05,31,08,29,14.80
2016,05,31,08,30,14.80
2016,05,31,08,31,14.90
2016,05,31,08,32,15.00
2016,05,31,08,33,15.00
2016,05,31,08,34,15.00
2016,05,31,08,35,15.00
2016,05,31,08,36,15.00
2016,05,31,08,37,15.00
2016,05,31,08,38,15.10
2016,05,31,08,39,15.20
2016,05,31,08,40,15.30
2016,05,31,08,41,15.40
2016,05,31,08,42,15.50
2016,05,31,08,43,15.50
2016,05,31,08,44,15.60
2016,05,31,08,45,15.70
2016,05,31,08,46,15.80
2016,05,31,08,47,15.80
2016,05,31,08,48,15.90
2016,05,31,08,49,15.90
2016,05,31,08,50,16.00
2016,05,31,08,51,16.00
2016,05,31,08,52,16.10
2016,05,31,08,53,16.10
2016,05,31,08,54,16.20
2016,05,31,08,55,16.20
2016,05,31,08,56,16.30
2016,05,31,08,57,16.30
2016,05,31,08,58,16.40
2016,05,31,08,59,16.40
2016,05,31,09,00,16.50
2016,05,31,09,01,16.50
2016,05,31,09,02,16.50
2016,05,31,09,03,16.60
2016,05,31,09,04,16.60
2016,05,31,09,05,16.70
2016,05,31,09,06,16.70
2016,05,31,09,07,16.80
2016,05,31,09,08,16.80
2016,05,31,09,09,16.90
2016,05,31,09,10,16.90
2016,05,31,09,11,17.00
2016,05,31,09,12,17.10
2016,05,31,09,13,17.10
2016,05,31,09,14,17.20
2016,05,31,09,15,17.20
2016,05,31,09,16,17.20
2016,05,31,09,17,17.30
2016,05,31,09,18,17.30
2016,05,31,09,19,17.30
2016,05,31,09,20,17.30
2016,05,31,09,21,17.30
2016,05,31,09,22,17.30
2016,05,31,09,23,17.30
2016,05,31,09,24,17.40
2016,05,31,09,25,17.40
2016,05,31,09,26,17.50
2016,05,31,09,27,17.50
2016,05,31,09,28,17.60
2016,05,31,09,29,17.70
2016,05,31,09,30,17.70
2016,05,31,09,31,17.70
2016,05,31,09,32,17.70
2016,05,31,09,33,17.70
2016,05,31,09,34,17.70
2016,05,31,09,35,17.70
2016,05,31,09,36,17.80
2016,05,31,09,37,17.80
2016,05,31,09,38,17.80
2016,05,31,09,39,17.90
2016,05,31,09,40,17.90
2016,05,31,09,41,17.90
2016,05,31,09,42,17.90
2016,05,31,09,43,18.00
2016,05,31,09,44,18.00
2016,05,31,09,45,18.00
2016,05,31,09,46,18.10
2016,05,31,09,47,18.10
2016,05,31,09,48,18.20
2016,05,31,09,49,18.20
2016,05,31,09,50,18.20
2016,05,31,09,51,18.20
2016,05,31,09,52,18.30
2016,05,31,09,53,18.30
2016,05,31,09,54,18.40
2016,05,31,09,55,18.40
2016,05,31,09,56,18.40
2016,05,31,09,57,18.50
2016,05,31,09,58,18.60
2016,05,31,09,59,18.60
2016,05,31,10,00,18.60
2016,05,31,10,01,18.70
2016,05,31,10,02,18.70
2016,05,31,10,03,18.70
2016,05,31,10,04,18.70
2016,05,31,10,05,18.70
2016,05,31,10,06,18.80
2016,05,31,10,07,18.80
2016,05,31,10,08,18.80
2016,05,31,10,09,18.80
2016,05,31,10,10,18.90
2016,05,31,10,11,18.90
2016,05,31,10,12,18.90
2016,05,31,10,13,18.90
2016,05,31,10,14,19.00
2016,05,31,10,15,19.00
2016,05,31,10,16,19.00
2016,05,31,10,17,19.00
2016,05,31,10,18,19.00
2016,05,31,10,19,19.00
2016,05,31,10,20,18.90
2016,05,31,10,21,18.90
2016,05,31,10,22,18.90
2016,05,31,10,23,18.90
2016,05,31,10,24,18.90
2016,05,31,10,25,18.90
2016,05,31,10,26,18.90
2016,05,31,10,27,18.90
2016,05,31,10,28,18.90
2016,05,31,10,29,18.90
2016,05,31,10,30,18.90
2016,05,31,10,31,18.90
2016,05,31,10,32,18.90
2016,05,31,10,33,18.90
2016,05,31,10,34,19.00
2016,05,31,10,35,19.00
2016,05,31,10,36,19.10
2016,05,31,10,37,19.10
2016,05,31,10,38,19.10
2016,05,31,10,39,19.10
2016,05,31,10,40,19.10
2016,05,31,10,41,19.10
2016,05,31,10,42,19.10
2016,05,31,10,43,19.10
2016,05,31,10,44,19.10
2016,05,31,10,45,19.10
2016,05,31,10,46,19.20
2016,05,31,10,47,19.20
2016,05,31,10,48,19.20
2016,05,31,10,49,19.20
2016,05,31,10,50,19.20
2016,05,31,10,51,19.30
2016,05,31,10,52,19.40
2016,05,31,10,53,19.50
2016,05,31,10,54,19.50
2016,05,31,10,55,19.60
2016,05,31,10,56,19.80
2016,05,31,10,57,19.80
2016,05,31,10,58,19.90
2016,05,31,10,59,20.00
2016,05,31,11,00,20.10
2016,05,31,11,01,20.10
2016,05,31,11,02,20.20
2016,05,31,11,03,20.20
2016,05,31,11,04,20.20
2016,05,31,11,05,20.20
2016,05,31,11,06,20.10
2016,05,31,11,07,20.00
2016,05,31,11,08,20.00
2016,05,31,11,09,19.90
2016,05,31,11,10,19.90
2016,05,31,11,11,19.90
2016,05,31,11,12,19.90
2016,05,31,11,13,20.00
2016,05,31,11,14,20.00
2016,05,31,11,15,20.10
2016,05,31,11,16,20.20
2016,05,31,11,17,20.30
2016,05,31,11,18,20.40
2016,05,31,11,19,20.50
2016,05,31,11,20,20.50
2016,05,31,11,21,20.60
2016,05,31,11,22,20.70
2016,05,31,11,23,20.70
2016,05,31,11,24,20.80
2016,05,31,11,25,20.80
2016,05,31,11,26,20.90
2016,05,31,11,27,20.90
2016,05,31,11,28,21.00
2016,05,31,11,29,21.00
2016,05,31,11,30,21.00
2016,05,31,11,31,21.10
2016,05,31,11,32,21.00
2016,05,31,11,33,21.00
2016,05,31,11,34,21.00
2016,05,31,11,35,21.00
2016,05,31,11,36,21.10
2016,05,31,11,37,21.20
2016,05,31,11,38,21.30
2016,05,31,11,39,21.30
2016,05,31,11,40,21.40
2016,05,31,11,41,21.40
2016,05,31,11,42,21.40
2016,05,31,11,43,21.50
2016,05,31,11,44,21.50
2016,05,31,11,45,21.60
2016,05,31,11,46,21.70
2016,05,31,11,47,21.70
2016,05,31,11,48,21.80
2016,05,31,11,49,21.80
2016,05,31,11,50,21.90
2016,05,31,11,51,22.00
2016,05,31,11,52,22.00
2016,05,31,11,53,22.10
2016,05,31,11,54,22.10
2016,05,31,11,55,22.10
2016,05,31,11,56,22.10
2016,05,31,11,57,22.00
2016,05,31,11,58,22.00
2016,05,31,11,59,22.00
2016,05,31,12,00,22.00
2016,05,31,12,01,22.00
2016,05,31,12,02,22.00
2016,05,31,12,03,22.10
2016,05,31,12,04,22.10
2016,05,31,12,05,22.20
2016,05,31,12,06,22.20
2016,05,31,12,07,22.20
2016,05,31,12,08,22.20
2016,05,31,12,09,22.10
2016,05,31,12,10,22.10
2016,05,31,12,11,22.10
2016,05,31,12,12,22.10
2016,05,31,12,13,22.10
2016,05,31,12,14,22.10
2016,05,31,12,15,22.20
2016,05,31,12,16,22.20
2016,05,31,12,17,22.20
2016,05,31,12,18,22.30
2016,05,31,12,19,22.30
2016,05,31,12,20,22.30
2016,05,31,12,21,22.30
2016,05,31,12,22,22.40
2016,05,31,12,23,22.50
2016,05,31,12,24,22.60
2016,05,31,12,25,22.70
2016,05,31,12,26,22.70
2016,05,31,12,27,22.80
2016,05,31,12,28,22.80
2016,05,31,12,29,22.80
2016,05,31,12,30,22.80
2016,05,31,12,31,22.80
2016,05,31,12,32,22.80
2016,05,31,12,33,22.70
2016,05,31,12,34,22.70
2016,05,31,12,35,22.70
2016,05,31,12,36,22.70
2016,05,31,12,37,22.60
2016,05,31,12,38,22.60
2016,05,31,12,39,22.50
2016,05,31,12,40,22.50
2016,05,31,12,41,22.50
2016,05,31,12,42,22.60
2016,05,31,12,43,22.60
2016,05,31,12,44,22.70
2016,05,31,12,45,22.70
2016,05,31,12,46,22.80
2016,05,31,12,47,22.80
2016,05,31,12,48,22.90
2016,05,31,12,49,22.90
2016,05,31,12,50,22.90
2016,05,31,12,51,22.90
2016,05,31,12,52,22.80
2016,05,31,12,53,22.80
2016,05,31,12,54,22.80
2016,05,31,12,55,22.80
2016,05,31,12,56,22.80
2016,05,31,12,57,22.70
2016,05,31,12,58,22.70
2016,05,31,12,59,22.70
2016,05,31,13,00,22.70
2016,05,31,13,01,22.80
2016,05,31,13,02,22.80
2016,05,31,13,03,22.80
2016,05,31,13,04,22.90
2016,05,31,13,05,22.90
2016,05,31,13,06,22.90
2016,05,31,13,07,22.90
2016,05,31,13,08,23.00
2016,05,31,13,09,23.00
2016,05,31,13,10,23.10
2016,05,31,13,11,23.20
2016,05,31,13,12,23.20
2016,05,31,13,13,23.30
2016,05,31,13,14,23.30
2016,05,31,13,15,23.40
2016,05,31,13,16,23.50
2016,05,31,13,17,23.50
2016,05,31,13,18,23.60
2016,05,31,13,19,23.60
2016,05,31,13,20,23.60
2016,05,31,13,21,23.60
2016,05,31,13,22,23.70
2016,05,31,13,23,23.80
2016,05,31,13,24,23.80
2016,05,31,13,25,23.80
2016,05,31,13,26,23.90
2016,05,31,13,27,23.90
2016,05,31,13,28,23.90
2016,05,31,13,29,23.90
2016,05,31,13,30,23.90
2016,05,31,13,31,23.90
2016,05,31,13,32,24.00
2016,05,31,13,33,24.00
2016,05,31,13,34,24.10
2016,05,31,13,35,24.10
2016,05,31,13,36,24.00
2016,05,31,13,37,24.00
2016,05,31,13,38,23.90
2016,05,31,13,39,23.90
2016,05,31,13,40,23.80
2016,05,31,13,41,23.90
2016,05,31,13,42,23.90
2016,05,31,13,43,23.90
2016,05,31,13,44,24.00
2016,05,31,13,45,24.00
2016,05,31,13,46,24.00
2016,05,31,13,47,24.00
2016,05,31,13,48,24.00
2016,05,31,13,49,24.00
2016,05,31,13,50,24.00
2016,05,31,13,51,24.10
2016,05,31,13,52,24.10
2016,05,31,13,53,24.00
2016,05,31,13,54,24.00
2016,05,31,13,55,24.00
2016,05,31,13,56,24.00
2016,05,31,13,57,23.90
2016,05,31,13,58,23.90
2016,05,31,13,59,23.90
2016,05,31,14,00,23.90
2016,05,31,14,01,23.90
2016,05,31,14,02,23.90
2016,05,31,14,03,24.00
2016,05,31,14,04,24.00
2016,05,31,14,05,24.00
2016,05,31,14,06,24.10
2016,05,31,14,07,24.10
2016,05,31,14,08,24.10
2016,05,31,14,09,24.10
2016,05,31,14,10,24.10
2016,05,31,14,11,24.10
2016,05,31,14,12,24.10
2016,05,31,14,13,24.20
2016,05,31,14,14,24.20
2016,05,31,14,15,24.20
2016,05,31,14,16,24.20
2016,05,31,14,17,24.20
2016,05,31,14,18,24.20
2016,05,31,14,19,24.20
2016,05,31,14,20,24.20
2016,05,31,14,21,24.20
2016,05,31,14,22,24.20
2016,05,31,14,23,24.20
2016,05,31,14,24,24.20
2016,05,31,14,25,24.30
2016,05,31,14,26,24.30
2016,05,31,14,27,24.20
2016,05,31,14,28,24.20
2016,05,31,14,29,24.10
2016,05,31,14,30,24.10
2016,05,31,14,31,24.10
2016,05,31,14,32,24.00
2016,05,31,14,33,24.00
2016,05,31,14,34,24.00
2016,05,31,14,35,24.00
2016,05,31,14,36,24.10
2016,05,31,14,37,24.20
2016,05,31,14,38,24.20
2016,05,31,14,39,24.30
2016,05,31,14,40,24.40
2016,05,31,14,41,24.50
2016,05,31,14,42,24.60
2016,05,31,14,43,24.60
2016,05,31,14,44,24.60
2016,05,31,14,45,24.60
2016,05,31,14,46,24.60
2016,05,31,14,47,24.60
2016,05,31,14,48,24.60
2016,05,31,14,49,24.60
2016,05,31,14,50,24.60
2016,05,31,14,51,24.60
2016,05,31,14,52,24.60
2016,05,31,14,53,24.70
2016,05,31,14,54,24.70
2016,05,31,14,55,24.80
2016,05,31,14,56,24.80
2016,05,31,14,57,24.80
2016,05,31,14,58,24.70
2016,05,31,14,59,24.70
2016,05,31,15,00,24.70
2016,05,31,15,01,24.70
2016,05,31,15,02,24.70
2016,05,31,15,03,24.70
2016,05,31,15,04,24.80
2016,05,31,15,05,24.80
2016,05,31,15,06,24.90
2016,05,31,15,07,24.90
2016,05,31,15,08,24.90
2016,05,31,15,09,24.90
2016,05,31,15,10,24.90
2016,05,31,15,11,24.80
2016,05,31,15,12,24.80
2016,05,31,15,13,24.80
2016,05,31,15,14,24.70
2016,05,31,15,15,24.70
2016,05,31,15,16,24.70
2016,05,31,15,17,24.70
2016,05,31,15,18,24.60
2016,05,31,15,19,24.60
2016,05,31,15,20,24.60
2016,05,31,15,21,24.50
2016,05,31,15,22,24.50
2016,05,31,15,23,24.50
2016,05,31,15,24,24.50
2016,05,31,15,25,24.50
2016,05,31,15,26,24.50
2016,05,31,15,27,24.60
2016,05,31,15,28,24.60
2016,05,31,15,29,24.50
2016,05,31,15,30,24.50
2016,05,31,15,31,24.50
2016,05,31,15,32,24.40
2016,05,31,15,33,24.40
2016,05,31,15,34,24.40
2016,05,31,15,35,24.50
2016,05,31,15,36,24.60
2016,05,31,15,37,24.70
2016,05,31,15,38,24.80
2016,05,31,15,39,24.80
2016,05,31,15,40,24.80
2016,05,31,15,41,24.90
2016,05,31,15,42,24.90
2016,05,31,15,43,24.90
2016,05,31,15,44,24.90
2016,05,31,15,45,24.90
2016,05,31,15,46,24.90
2016,05,31,15,47,24.90
2016,05,31,15,48,24.90
2016,05,31,15,49,24.90
2016,05,31,15,50,24.90
2016,05,31,15,51,24.90
2016,05,31,15,52,24.80
2016,05,31,15,53,24.80
2016,05,31,15,54,24.70
2016,05,31,15,55,24.70
2016,05,31,15,56,24.60
2016,05,31,15,57,24.50
2016,05,31,15,58,24.40
2016,05,31,15,59,24.40
2016,05,31,16,00,24.40
2016,05,31,16,01,24.30
2016,05,31,16,02,24.30
2016,05,31,16,03,24.30
2016,05,31,16,04,24.30
2016,05,31,16,05,24.20
2016,05,31,16,06,24.20
2016,05,31,16,07,24.20
2016,05,31,16,08,24.10
2016,05,31,16,09,24.00
2016,05,31,16,10,23.90
2016,05,31,16,11,23.80
2016,05,31,16,12,23.70
2016,05,31,16,13,23.60
2016,05,31,16,14,23.60
2016,05,31,16,15,23.60
2016,05,31,16,16,23.60
2016,05,31,16,17,23.60
2016,05,31,16,18,23.60
2016,05,31,16,19,23.60
2016,05,31,16,20,23.60
2016,05,31,16,21,23.60
2016,05,31,16,22,23.70
2016,05,31,16,23,23.70
2016,05,31,16,24,23.70
2016,05,31,16,25,23.70
2016,05,31,16,26,23.70
2016,05,31,16,27,23.60
2016,05,31,16,28,23.60
2016,05,31,16,29,23.60
2016,05,31,16,30,23.60
2016,05,31,16,31,23.50
2016,05,31,16,32,23.50
2016,05,31,16,33,23.50
2016,05,31,16,34,23.40
2016,05,31,16,35,23.40
2016,05,31,16,36,23.40
2016,05,31,16,37,23.50
2016,05,31,16,38,23.50
2016,05,31,16,39,23.60
2016,05,31,16,40,23.60
2016,05,31,16,41,23.60
2016,05,31,16,42,23.70
2016,05,31,16,43,23.70
2016,05,31,16,44,23.70
2016,05,31,16,45,23.70
2016,05,31,16,46,23.70
2016,05,31,16,47,23.80
2016,05,31,16,48,23.80
2016,05,31,16,49,23.80
2016,05,31,16,50,23.80
2016,05,31,16,51,23.80
2016,05,31,16,52,23.90
2016,05,31,16,53,23.90
2016,05,31,16,54,23.80
2016,05,31,16,55,23.80
2016,05,31,16,56,23.70
2016,05,31,16,57,23.70
2016,05,31,16,58,23.60
2016,05,31,16,59,23.50
2016,05,31,17,00,23.50
2016,05,31,17,01,23.50
2016,05,31,17,02,23.50
2016,05,31,17,03,23.40
2016,05,31,17,04,23.40
2016,05,31,17,05,23.50
2016,05,31,17,06,23.50
2016,05,31,17,07,23.50
2016,05,31,17,08,23.60
2016,05,31,17,09,23.60
2016,05,31,17,10,23.60
2016,05,31,17,11,23.60
2016,05,31,17,12,23.60
2016,05,31,17,13,23.50
2016,05,31,17,14,23.50
2016,05,31,17,15,23.40
2016,05,31,17,16,23.40
2016,05,31,17,17,23.30
2016,05,31,17,18,23.20
2016,05,31,17,19,23.10